This demonstration page uses our WeatherBlox Daily Observations layout. Learn more.

Left ArrowRight Arrow

41.55636, -103.73856

Hourly Observations for December 4, 2021

Temp ( °F °C ) Dew Point ( °F °C ) Humidity (%) Winds ( mph kmh ) Pressure ( in mb ) Visibility ( mi km ) Precip ( " mm )
12:58 am 00:58 Clear 40 4.2 24 -4.4 54 54 SSW 22 35 30.10 1019 10 16 0.00 0.00
1:58 am 01:58 Mostly Clear 40 4.6 24 -4.5 52 52 SSW 23 37 30.08 1019 10 16 0.00 0.00
2:58 am 02:58 Clear 40 4.2 24 -4.2 55 55 SSW 21 33 30.08 1019 10 16 0.00 0.00
3:58 am 03:58 Partly Cloudy 38 3.2 25 -4.1 59 59 SSW 18 30 30.09 1019 10 16 0.00 0.00
4:58 am 04:58 Clear 36 2.3 25 -4.1 63 63 SW 10 17 30.11 1020 10 16 0.00 0.00
5:58 am 05:58 Clear 33 0.6 24 -4.4 70 70 SW 10 17 30.13 1020 10 16 0.00 0.00
6:58 am 06:58 Clear 30 -1.1 23 -4.9 76 76 SW 10 17 30.15 1021 10 16 0.00 0.00
7:58 am 07:58 Sunny 32 -0.1 25 -3.8 76 76 SW 9 15 30.14 1021 10 16 0.00 0.00
8:58 am 08:58 Sunny 32 0 25 -3.9 75 75 NNE 6 9 30.14 1021 10 16 0.00 0.00
9:58 am 09:58 Sunny 48 8.8 30 -1.3 49 49 SSW 10 17 30.05 1018 10 16 0.00 0.00
10:58 am 10:58 Sunny 57 13.9 28 -2.4 33 33 SW 14 22 29.98 1015 10 16 0.00 0.00
11:58 am 11:58 Sunny 61 16.1 26 -3.3 26 26 SSW 12 19 29.93 1014 10 16 0.00 0.00
12:58 pm 12:58 Sunny 66 18.7 22 -5.5 19 19 SW 17 28 29.88 1012 10 16 0.00 0.00
1:58 pm 13:58 Sunny 64 17.8 23 -4.8 21 21 SSW 21 33 29.87 1011 10 16 0.00 0.00
2:58 pm 14:58 Sunny 61 15.9 24 -4.3 25 25 SSW 10 17 29.86 1011 10 16 0.00 0.00
3:56 pm 15:56 Sunny 58 14.2 22 -5.7 25 25 WSW 9 15 29.85 1011 10 16 0.00 0.00
4:56 pm 16:56 Mostly Clear 53 11.5 22 -5.5 30 30 SSW 13 20 29.86 1011 10 16 0.00 0.00
5:56 pm 17:56 Mostly Clear 52 11 23 -5.2 32 32 SSW 16 26 29.86 1011 10 16 0.00 0.00
6:56 pm 18:56 Mostly Cloudy 57 13.8 15 -9.6 19 19 WSW 22 35 29.82 1010 10 16 0.00 0.00
7:56 pm 19:56 Clear 58 14.4 15 -9.3 19 19 WSW 20 31 29.80 1009 10 16 0.00 0.00
8:56 pm 20:56 Mostly Cloudy 55 12.8 13 -10.3 19 19 W 12 19 29.80 1009 10 16 0.00 0.00
9:56 pm 21:56 Clear 49 9.7 12 -10.9 22 22 WSW 8 13 29.77 1008 10 16 0.00 0.00
10:58 pm 22:58 Clear 53 11.7 11 -11.7 18 18 W 9 15 29.72 1007 10 16 0.00 0.00
11:58 pm 23:58 Clear 56 13.3 8 -13.2 15 15 W 12 19 29.69 1005 10 16 0.00 0.00

Powered by AerisWeather